STARLINK-2263

decayed
NORAD ID: 48003 Int'l Des: 2021-024 Owner: SPXS Country: US Constellation: starlink
LEOCIRCULAR

关于 STARLINK-2263

正在加载描述...

高度历史

Altitude vs Time

uPlot chart will show altitude changes over time

两行轨道根数

1 48003U 21024AC 25151.14597499 .30871399 12649-4 29757-3 0 9995
2 48003 53.0252 133.5969 0005178 258.3141 160.1720 16.50889224231878
Epoch: May 31, 2025 • Age: 2666 hours

当前状态

Position data unavailable
发射日期 Mar 24, 2021
运行时间 4.4 years
衰减日期 May 31, 2025
类型 internet

技术详情

分类 Payload
质量 260.00 kg
干质量 248.00 kg
总质量 260.00 kg
长度 0.20 m
直径 2.80 m
跨度 9.00 m
形状 Box + pan
制造商 SPXS
平台类型 Starlink
阶段状态 Reentered
所有者/国家 SPXS/US

大型星座

Loading constellations...